STARLINK-32198 (60321 NORAD) Tracking and Keplerian Element Data

This shows tracking and keplerian element data for the satellite.

Feedback or suggestion? Click here.




ElementValue
Catalog60321
NameSTARLINK-32198
Epoch Orbit595
Epoch Day286.91668981
Epoch Year2024
RAAN165.8056
Inclination53.1578
Eccentricity7.52E-05
Argument of Perigee76.5207
Mean Anonmoly311.5413
Mean Motion15.39788479
Decay Rate-0.00232753
L11 60321U 24133W 24286.91668981 -.00232753 00000+0 -59551-2 0 9995
L22 60321 53.1578 165.8056 0000752 76.5207 311.5413 15.39788479 5953



Live tracking and technical data element details for STARLINK-32198 (NORAD 60321). STARLINK-32198 can be tracked NOW for your location showing map with azimuth and elevation plus other details from your city location.







IsCatalogInMostPopularTable: catalog: 60321, numindb: 9
Update: records affected: 1



GetName: 60321 STARLINK-32198

Hit Count: updated at: Tue, 03 Dec 2024 03:11:38 GMT